When you browse on this site, cookies collect data to enhance your experience and personalize the content and advertising you see.
Visit our Privacy Policy to learn more. By continuing to use the site, you agree to this use of cookies and data.
  • En España
  • Lista de países
  • Para 7 días
  • Temperatura del agua
  • El tiempo en el mapa
  • Informadores
  • user-avatar
    Iniciar sesión

    Tiempo cada hora Bolonia

    Hoy, 20 Agosto, Martes

    Tiempo Temperatura Precipitaciones Viento Presión Humedad
    00:00 +25°C° 0 mm 2 mps 755 mmHg 56%
    01:00 +24°C° 0 mm 2 mps 755 mmHg 56%
    02:00 +24°C° 0 mm 2 mps 755 mmHg 58%
    03:00 +23°C° 0 mm 2 mps 755 mmHg 60%
    04:00 +23°C° 0 mm 1 mps 755 mmHg 61%
    05:00 +24°C° 0 mm 1 mps 755 mmHg 61%
    06:00 +24°C° 0 mm 1 mps 755 mmHg 61%
    07:00 +25°C° 0 mm 1 mps 755 mmHg 61%
    08:00 +27°C° 0 mm 1 mps 755 mmHg 56%
    09:00 +29°C° 0 mm 1 mps 755 mmHg 52%
    10:00 +31°C° 0 mm 1 mps 755 mmHg 47%
    11:00 +33°C° 0 mm 1 mps 755 mmHg 41%
    12:00 +35°C° 0 mm 1 mps 755 mmHg 36%
    13:00 +36°C° 0 mm 1 mps 755 mmHg 30%
    14:00 +37°C° 0 mm 2 mps 755 mmHg 29%
    15:00 +38°C° 0 mm 2 mps 754 mmHg 29%
    16:00 +38°C° 0 mm 3 mps 754 mmHg 28%
    17:00 +35°C° 0 mm 3 mps 754 mmHg 36%
    18:00 +33°C° 0 mm 3 mps 754 mmHg 44%
    19:00 +30°C° 0 mm 3 mps 754 mmHg 52%
    20:00 +29°C° 0 mm 3 mps 754 mmHg 51%
    21:00 +27°C° 0 mm 3 mps 754 mmHg 50%
    22:00 +26°C° 0 mm 2 mps 754 mmHg 50%
    23:00 +26°C° 0 mm 2 mps 754 mmHg 50%

    Mañana, 21 Agosto, Miércoles

    Tiempo Temperatura Precipitaciones Viento Presión Humedad
    00:00 +25°C° 0 mm 2 mps 754 mmHg 51%
    01:00 +25°C° 0 mm 2 mps 754 mmHg 52%
    02:00 +24°C° 0 mm 2 mps 754 mmHg 55%
    03:00 +24°C° 0 mm 2 mps 754 mmHg 58%
    04:00 +23°C° 0 mm 2 mps 754 mmHg 61%
    05:00 +24°C° 0 mm 2 mps 755 mmHg 61%
    06:00 +24°C° 0 mm 2 mps 755 mmHg 62%
    07:00 +25°C° 0 mm 2 mps 755 mmHg 62%
    08:00 +27°C° 0 mm 3 mps 755 mmHg 58%
    09:00 +29°C° 0 mm 3 mps 756 mmHg 53%
    10:00 +30°C° 0 mm 3 mps 756 mmHg 49%
    11:00 +33°C° 0 mm 3 mps 756 mmHg 46%
    12:00 +34°C° 0 mm 3 mps 755 mmHg 43%
    13:00 +35°C° 0 mm 3 mps 755 mmHg 39%
    14:00 +35°C° 0 mm 3 mps 755 mmHg 41%
    15:00 +34°C° 0 mm 4 mps 755 mmHg 43%
    16:00 +34°C° 0 mm 5 mps 755 mmHg 45%
    17:00 +32°C° 0.3 mm 4 mps 755 mmHg 54%
    18:00 +29°C° 0.3 mm 3 mps 755 mmHg 63%
    19:00 +26°C° 0.3 mm 3 mps 755 mmHg 73%
    20:00 +26°C° 0.1 mm 2 mps 756 mmHg 76%
    21:00 +25°C° 0.1 mm 2 mps 756 mmHg 80%
    22:00 +24°C° 0.1 mm 1 mps 756 mmHg 83%
    23:00 +24°C° 0 mm 1 mps 756 mmHg 84%

    Pasado mañana, 22 Agosto, Jueves

    Tiempo Temperatura Precipitaciones Viento Presión Humedad
    00:00 +24°C° 0 mm 1 mps 756 mmHg 84%
    01:00 +23°C° 0 mm 1 mps 757 mmHg 85%
    02:00 +23°C° 0 mm 1 mps 756 mmHg 86%
    03:00 +23°C° 0 mm 1 mps 756 mmHg 87%
    04:00 +22°C° 0 mm 1 mps 756 mmHg 88%
    05:00 +23°C° 0 mm 1 mps 756 mmHg 86%
    06:00 +24°C° 0 mm 1 mps 756 mmHg 83%
    07:00 +24°C° 0 mm 1 mps 757 mmHg 80%
    08:00 +26°C° 0 mm 1 mps 757 mmHg 72%
    09:00 +27°C° 0 mm 2 mps 757 mmHg 64%
    10:00 +29°C° 0 mm 2 mps 757 mmHg 57%
    11:00 +30°C° 0.1 mm 2 mps 757 mmHg 52%
    12:00 +31°C° 0.1 mm 2 mps 757 mmHg 48%
    13:00 +33°C° 0.1 mm 3 mps 756 mmHg 43%
    14:00 +33°C° 0 mm 3 mps 756 mmHg 43%
    15:00 +33°C° 0 mm 3 mps 756 mmHg 43%
    16:00 +33°C° 0 mm 3 mps 755 mmHg 43%
    17:00 +30°C° 0.3 mm 3 mps 756 mmHg 51%
    18:00 +28°C° 0.3 mm 3 mps 756 mmHg 60%
    19:00 +26°C° 0.3 mm 3 mps 756 mmHg 68%
    20:00 +26°C° 0 mm 2 mps 756 mmHg 69%
    21:00 +25°C° 0 mm 2 mps 756 mmHg 70%
    22:00 +24°C° 0 mm 1 mps 757 mmHg 72%
    23:00 +24°C° 0 mm 1 mps 756 mmHg 71%

    23 Agosto, Viernes

    Tiempo Temperatura Precipitaciones Viento Presión Humedad
    00:00 +24°C° 0 mm 1 mps 756 mmHg 71%
    01:00 +22°C° 0 mm 0 mps 756 mmHg 70%
    02:00 +24°C° 0.1 mm 1 mps 756 mmHg 72%
    03:00 +23°C° 0.1 mm 1 mps 756 mmHg 74%
    04:00 +23°C° 0.1 mm 1 mps 756 mmHg 77%
    05:00 +24°C° 0.1 mm 1 mps 756 mmHg 76%
    06:00 +24°C° 0.1 mm 1 mps 757 mmHg 76%
    07:00 +24°C° 0.1 mm 1 mps 757 mmHg 76%
    08:00 +26°C° 0 mm 1 mps 757 mmHg 70%
    09:00 +27°C° 0 mm 1 mps 757 mmHg 64%
    10:00 +29°C° 0 mm 2 mps 757 mmHg 58%
    11:00 +30°C° 0.1 mm 2 mps 757 mmHg 54%
    12:00 +31°C° 0.1 mm 3 mps 757 mmHg 50%
    13:00 +33°C° 0.1 mm 3 mps 757 mmHg 46%
    14:00 +33°C° 0.1 mm 3 mps 756 mmHg 47%
    15:00 +33°C° 0.1 mm 3 mps 756 mmHg 47%
    16:00 +33°C° 0.1 mm 3 mps 756 mmHg 48%
    17:00 +30°C° 0.1 mm 3 mps 756 mmHg 53%
    18:00 +29°C° 0.1 mm 2 mps 756 mmHg 59%
    19:00 +27°C° 0.1 mm 2 mps 756 mmHg 64%
    20:00 +26°C° 0 mm 2 mps 756 mmHg 67%
    21:00 +25°C° 0 mm 1 mps 757 mmHg 70%
    22:00 +24°C° 0 mm 1 mps 757 mmHg 73%
    23:00 +24°C° 0.1 mm 1 mps 757 mmHg 74%

    24 Agosto, Sábado

    Tiempo Temperatura Precipitaciones Viento Presión Humedad
    00:00 +23°C° 0.1 mm 1 mps 757 mmHg 75%
    01:00 +21°C° 0.1 mm 0 mps 757 mmHg 76%
    02:00 +21°C° 0.3 mm 0 mps 757 mmHg 79%
    03:00 +22°C° 0.3 mm 1 mps 756 mmHg 81%
    04:00 +22°C° 0.3 mm 1 mps 756 mmHg 84%
    05:00 +23°C° 0.1 mm 1 mps 756 mmHg 82%
    06:00 +23°C° 0.1 mm 1 mps 756 mmHg 81%
    07:00 +24°C° 0.1 mm 1 mps 756 mmHg 79%
    08:00 +26°C° 0.1 mm 1 mps 757 mmHg 73%
    09:00 +28°C° 0.1 mm 1 mps 757 mmHg 67%
    10:00 +29°C° 0.1 mm 2 mps 757 mmHg 61%
    11:00 +30°C° 0.4 mm 2 mps 756 mmHg 56%
    12:00 +32°C° 0.4 mm 2 mps 756 mmHg 51%
    13:00 +34°C° 0.4 mm 2 mps 756 mmHg 47%
    14:00 +34°C° 0 mm 2 mps 756 mmHg 45%
    15:00 +34°C° 0 mm 2 mps 755 mmHg 43%
    16:00 +34°C° 0 mm 2 mps 755 mmHg 41%
    17:00 +31°C° 0.3 mm 2 mps 755 mmHg 48%
    18:00 +29°C° 0.3 mm 2 mps 755 mmHg 56%
    19:00 +27°C° 0.3 mm 2 mps 755 mmHg 63%
    20:00 +26°C° 0.5 mm 2 mps 755 mmHg 67%
    21:00 +25°C° 0.5 mm 1 mps 755 mmHg 71%
    22:00 +24°C° 0.5 mm 1 mps 756 mmHg 75%
    23:00 +24°C° 0.1 mm 1 mps 756 mmHg 76%

    25 Agosto, Domingo

    Tiempo Temperatura Precipitaciones Viento Presión Humedad
    00:00 +23°C° 0.1 mm 1 mps 756 mmHg 77%
    01:00 +23°C° 0.1 mm 1 mps 756 mmHg 78%
    02:00 +23°C° 0 mm 1 mps 755 mmHg 79%
    03:00 +23°C° 0 mm 1 mps 755 mmHg 79%
    04:00 +22°C° 0 mm 1 mps 755 mmHg 80%
    05:00 +23°C° 0 mm 1 mps 755 mmHg 78%
    06:00 +24°C° 0 mm 1 mps 755 mmHg 76%
    07:00 +24°C° 0 mm 1 mps 755 mmHg 74%
    08:00 +26°C° 0 mm 1 mps 755 mmHg 67%
    09:00 +28°C° 0 mm 1 mps 756 mmHg 59%
    10:00 +30°C° 0 mm 1 mps 756 mmHg 52%
    11:00 +32°C° 0 mm 1 mps 756 mmHg 47%
    12:00 +33°C° 0 mm 1 mps 755 mmHg 42%
    13:00 +34°C° 0 mm 1 mps 755 mmHg 38%
    14:00 +34°C° 0.1 mm 1 mps 755 mmHg 38%
    15:00 +34°C° 0.1 mm 1 mps 754 mmHg 38%
    16:00 +34°C° 0.1 mm 1 mps 754 mmHg 38%
    17:00 +32°C° 0.1 mm 1 mps 754 mmHg 44%
    18:00 +30°C° 0.1 mm 2 mps 754 mmHg 51%
    19:00 +28°C° 0.1 mm 2 mps 754 mmHg 58%
    20:00 +27°C° 0.1 mm 2 mps 754 mmHg 60%
    21:00 +26°C° 0.1 mm 2 mps 754 mmHg 63%
    22:00 +25°C° 0.1 mm 2 mps 755 mmHg 65%
    23:00 +25°C° 0 mm 2 mps 755 mmHg 65%
    Mostrar más